User: anonymous   Login
Location: Little Suamico
(44.7175°N, 88.0093°W)
Time: 23:10:48
(UTC+00:00)
Language:

AO-27 - Orbit

View from above orbital plane
View from above orbital plane
View from above satellite
View from above satellite

Ground track
Ground track

The orbit data is extracted from the following two-line orbital elements,

1 22825U 93061C   21172.57630758 -.00000004  00000-0  16476-4 0  9995
2 22825  98.9167 190.2935 0008941  29.6831 330.4856 14.30117322446840
Epoch (UTC): 21 June 2021 13:49:52
Eccentricity: 0.0008941
inclination: 98.9167°
perigee height: 785 km
apogee height: 798 km
right ascension of ascending node: 190.2935°
argument of perigee: 29.6831°
revolutions per day: 14.30117322
mean anomaly at epoch: 330.4856°
orbit number at epoch: 44684

The dashed part of the orbit path shows where the satellite is in the earth's shadow,  

DLR